Regional Weather Roundup
Issued by NWS Sterling, VA

Home | Current Version | Previous Version | Graphics & Text | Print | Product List | Glossary On
Versions: 1 2 3 4 5 6 7 8 9 10 11 12 13 14 15 16 17 18 19 20 21 22 23 24 25 26 27 28 29 30 31 32 33 34 35 36 37 38 39 40 41 42 43 44 45 46 47 48 49 50
000
ASUS41 KLWX 181910
RWRLWX

REGIONAL WEATHER ROUNDUP
NATIONAL WEATHER SERVICE BALTIMORE MD/WASHINGTON DC
300 PM EDT THU SEP 18 2014

Note: "FAIR" indicates few or no clouds below 12,000 feet
with no significant weather and/or obstructions to visibility.
 TC=TEMPERATURE CELSIUS

 * =Non NWS site. Station does not report precipitation (e.g. rain,
    snow, etc.), thunder, or fog.

DCZ001-MDZ009-015-VAZ040>042-051-053>054-182000-
WASHINGTON METRO

CITY           SKY/WX    TMP DP  RH WIND       PRES   REMARKS
WASHINGTON NAT PTSUNNY   78  57  48 SE3       30.00S
DULLES         PTSUNNY   77  49  37 NW13G20   30.01S
ANDREWS AFB    MOSUNNY   75  60  59 S10       29.99F
QUANTICO       PTSUNNY   75  61  61 S7        30.01F
COLLEGE PARK*  PTSUNNY   79  54  41 NW10      29.99S
LEESBURG*      MOSUNNY   77  52  41 NW9       30.02F
GAITHERSBURG*  MOSUNNY   73  55  53 NW5       30.04F

$$

MDZ006>007-011-014-182000-
BALTIMORE METRO

CITY           SKY/WX    TMP DP  RH WIND       PRES   REMARKS
BWI AIRPORT    PTSUNNY   70  62  76 SE6       30.00S
MD SCIENCE CTR   N/A     70  60  70 MISG      30.01S
MARTIN STATE   PTSUNNY   70  61  73 N6        30.02S
ANNAPOLIS      LGT RAIN  70  60  70 N7        30.00R
FORT MEADE*    CLOUDY    70  59  68 NE5       30.02S

$$

MDZ012-015-019>023-182000-
MARYLAND EASTERN SHORE

CITY           SKY/WX    TMP DP  RH WIND       PRES   REMARKS
OCEAN CITY     PTSUNNY   73  55  53 VRB6      30.02R
SALISBURY      CLOUDY    78  52  40 SE6       30.00S
BAY BRIDGE AP*   N/A     72  54  53 S3        30.01R
CAMBRIDGE*     MOSUNNY   73  54  49 SW7       30.00S
EASTON*        MOSUNNY   77  57  50 NW5       30.04S

$$

MDZ017>025-182000-
SOUTHERN MARYLAND

CITY           SKY/WX    TMP DP  RH WIND       PRES   REMARKS
PATUXENT RIVER PTSUNNY   73  56  54 SE7G21    30.00F
ST INIGOES     MOSUNNY   73  55  53 SE3       30.00S
LEONARDTOWN*   CLOUDY    72  54  53 CALM      30.02S

$$

MDZ003>005-182000-
NORTH CENTRAL MARYLAND

CITY           SKY/WX    TMP DP  RH WIND       PRES   REMARKS
FREDERICK*     MOSUNNY   79  54  41 N10       30.04F
HAGERSTOWN APT MOSUNNY   74  46  36 VRB5      30.03S
WESTMINSTER*   SUNNY     73  46  38 N6        30.03S

$$

MDZ501>502-182000-
WESTERN MARYLAND

CITY           SKY/WX    TMP DP  RH WIND       PRES   REMARKS
OAKLAND*       MOSUNNY   63  39  42 N7        30.11S
CUMBERLAND*    MOSUNNY   79  45  29 NE10      30.06F

$$

VAZ025>031-182000-
SHENANDOAH VALLEY

CITY           SKY/WX    TMP DP  RH WIND       PRES   REMARKS
WINCHESTER*    PTSUNNY   73  45  35 NW7       30.02F
STAUNTON*      CLOUDY    74  51  45 E3        30.04S

$$

WVZ021-048>050-054>055-182000-
EASTERN WEST VIRGINIA PANHANDLE

CITY           SKY/WX    TMP DP  RH WIND       PRES   REMARKS
MARTINSBURG    PTSUNNY   76  47  35 N7        30.03S
PETERSBURG*    MOSUNNY   74  45  34 CALM      30.03F

$$

VAZ036>039-050-182000-
CENTRAL FOOTHILLS

CITY           SKY/WX    TMP DP  RH WIND       PRES   REMARKS
CHARLOTTESVILL CLOUDY    72  57  59 E7        30.00S
ORANGE*        CLOUDY    73  54  49 CALM      30.02S

$$

VAZ055>057-182000-
NORTH AND CENTRAL PIEDMONT

CITY           SKY/WX    TMP DP  RH WIND       PRES   REMARKS
FREDERICKSBRG* PTSUNNY   72  63  72 SE3       29.99F
STAFFORD*      LGT RAIN  69  64  81 SW3       30.05R

$$

NCZ024-NYZ072-PAZ021-071-VAZ022-071-182000-
OTHER REGIONAL OBSERVATIONS

CITY           SKY/WX    TMP DP  RH WIND       PRES   REMARKS
NEW YORK CITY  PTSUNNY   73  47  39 E6        30.00F
PHILADELPHIA   CLOUDY    71  54  54 SW10      30.01S
PITTSBURGH     PTSUNNY   67  45  45 N8        30.09F
ROANOKE        PTSUNNY   74  54  49 SE3       30.03F
RICHMOND       PTSUNNY   76  58  53 S7        30.00F
RALEIGH        MOSUNNY   77  58  51 E6        29.99F

$$

ANZ530>537-182000-
MARINE OBSERVATIONS

STATION/POSITION TIME  TEMP    WIND        PRES
                       AIR SEA DIR/SP/G
                 (UTC) (F)     (DEG/KT/KT) (MB)
THOMAS PT LIGHT  1900   71 75  170/  6/  7 1016.9S
BALT KEY BRIDGE  1900   69     120/  6/  7 1015.6F
COVE POINT       1900   71     170/ 10/ 12 1015.9F
LEWISETTA        1900   71 75  130/ 10/ 12 1015.5F
SOLOMONS ISLAND  1900      76                N/A
PINEY POINT      1900          160/ 10/ 11   N/A

$$



USA.gov is the U.S. government's official web portal to all federal, state and local government web resources and services.